DW1774 Weather Reports


Display with metric or nautical units.
time (UTC)temp
F
wind
direction
speed
MPH
gust
MPH
rain 1hr
in
rain 24hr
in
rain mn
in
humidity
%
barometer
mb
20260506185405 86 141 4.0 9.0 0.00 0.00 0.00 74 1009.6
20260506184904 86 166 3.0 9.0 0.00 0.00 0.00 74 1009.7
20260506184403 86 151 2.0 9.0 0.00 0.00 0.00 74 1009.8
20260506183404 86 187 2.0 9.0 0.00 0.00 0.00 75 1009.7
20260506182404 86 166 3.0 9.0 0.00 0.00 0.00 76 1009.9
20260506181904 86 182 2.0 9.0 0.00 0.00 0.00 75 1010.0
20260506181405 86 151 3.0 7.0 0.00 0.00 0.00 75 1010.1
20260506180905 86 201 2.0 7.0 0.00 0.00 0.00 76 1010.1
20260506180404 85 178 1.0 8.0 0.00 0.00 0.00 77 1010.1
20260506175904 85 171 2.0 9.0 0.00 0.00 0.00 78 1010.2
20260506175404 84 163 2.0 9.0 0.00 0.00 0.00 78 1010.2
20260506174903 84 162 3.0 9.0 0.00 0.00 0.00 79 1010.2
20260506174404 84 140 3.0 7.0 0.00 0.00 0.00 78 1010.3
20260506173904 84 197 3.0 9.0 0.00 0.00 0.00 78 1010.2
20260506173403 84 152 4.0 9.0 0.00 0.00 0.00 78 1010.3
20260506172904 84 193 2.0 9.0 0.00 0.00 0.00 79 1010.4
20260506172405 84 176 3.0 9.0 0.00 0.00 0.00 80 1010.4
20260506171905 83 185 3.0 9.0 0.00 0.00 0.00 81 1010.5
20260506171405 83 147 2.0 9.0 0.00 0.00 0.00 81 1010.6
20260506170404 82 185 4.0 8.0 0.00 0.00 0.00 84 1010.7
20260506165903 81 161 1.0 8.0 0.00 0.00 0.00 84 1010.8
20260506165404 81 146 2.0 8.0 0.00 0.00 0.00 85 1010.8
20260506164904 81 159 1.0 5.0 0.00 0.00 0.00 86 1010.7
20260506164405 81 195 1.0 5.0 0.00 0.00 0.00 86 1010.7
20260506163904 81 185 1.0 8.0 0.00 0.00 0.00 85 1010.7
20260506163404 80 184 3.0 8.0 0.00 0.00 0.00 85 1010.7
20260506162904 80 194 5.0 8.0 0.00 0.00 0.00 85 1010.6
20260506162404 80 175 2.0 5.0 0.00 0.00 0.00 85 1010.7
20260506161903 80 180 3.0 7.0 0.00 0.00 0.00 85 1010.6
20260506161404 80 171 3.0 9.0 0.00 0.00 0.00 85 1010.6
20260506160904 80 210 2.0 9.0 0.00 0.00 0.00 85 1010.6
20260506160404 80 155 4.0 9.0 0.00 0.00 0.00 85 1010.5
20260506155904 80 164 2.0 6.0 0.00 0.00 0.00 85 1010.6
20260506155405 80 163 2.0 6.0 0.00 0.00 0.00 86 1010.6
20260506154404 80 178 2.0 6.0 0.00 0.00 0.00 86 1010.3
20260506153904 80 169 2.0 7.0 0.00 0.00 0.00 85 1010.1
20260506153404 80 183 2.0 8.0 0.00 0.00 0.00 85 1010.1
20260506151904 80 165 2.0 6.0 0.00 0.00 0.00 85 1010.0
20260506151404 80 208 1.0 8.0 0.00 0.00 0.00 85 1009.9
20260506150404 80 142 2.0 8.0 0.00 0.00 0.00 85 1009.8
20260506145905 80 160 3.0 8.0 0.00 0.00 0.00 86 1009.6
20260506145405 80 166 2.0 6.0 0.00 0.00 0.00 86 1009.5
20260506144904 80 178 1.0 8.0 0.00 0.00 0.00 86 1009.4
20260506144405 80 173 4.0 8.0 0.00 0.00 0.00 86 1009.4
20260506143904 80 153 2.0 5.0 0.00 0.00 0.00 86 1009.4
20260506143404 79 153 2.0 5.0 0.00 0.00 0.00 86 1009.4
20260506142904 79 159 3.0 8.0 0.00 0.00 0.00 86 1009.6
20260506142404 79 164 2.0 9.0 0.00 0.00 0.00 87 1009.5
20260506141904 79 142 3.0 9.0 0.00 0.00 0.00 87 1009.5
20260506141404 79 165 3.0 6.0 0.00 0.00 0.00 88 1009.6
20260506140904 79 183 2.0 6.0 0.00 0.00 0.00 88 1009.6
20260506140404 79 187 2.0 6.0 0.00 0.00 0.00 89 1009.6
20260506135904 79 184 3.0 8.0 0.00 0.00 0.00 89 1009.7
20260506135405 79 177 3.0 8.0 0.00 0.00 0.00 89 1009.7
20260506134904 78 176 3.0 8.0 0.00 0.00 0.00 90 1009.7
20260506134404 78 167 2.0 5.0 0.00 0.00 0.00 90 1009.7
20260506133405 78 173 2.0 3.0 0.00 0.00 0.00 90 1009.8
20260506132904 78 170 1.0 6.0 0.00 0.00 0.00 90 1009.8
20260506132404 77 171 1.0 6.0 0.00 0.00 0.00 90 1009.8
20260506131904 77 180 0.0 2.0 0.00 0.00 0.00 90 1009.9
20260506131404 77 181 1.0 3.0 0.00 0.00 0.00 90 1009.8
20260506125904 77 181 1.0 7.0 0.00 0.00 0.00 90 1009.9
20260506125404 77 185 2.0 7.0 0.00 0.00 0.00 90 1009.8
20260506124904 77 163 3.0 7.0 0.00 0.00 0.00 90 1009.7
20260506124405 77 187 1.0 6.0 0.00 0.00 0.00 90 1009.7
20260506123904 77 190 1.0 6.0 0.00 0.00 0.00 90 1009.6
20260506123405 77 191 2.0 6.0 0.00 0.00 0.00 90 1009.5
20260506122904 76 178 2.0 6.0 0.00 0.00 0.00 90 1009.5
20260506122404 76 182 2.0 7.0 0.00 0.00 0.00 90 1009.5
20260506121904 76 184 3.0 7.0 0.00 0.00 0.00 90 1009.5
20260506120904 76 200 1.0 6.0 0.00 0.00 0.00 90 1009.4
20260506120405 76 183 3.0 7.0 0.00 0.00 0.00 90 1009.3
20260506115904 76 181 4.0 9.0 0.00 0.00 0.00 90 1009.2
20260506115404 76 184 3.0 9.0 0.00 0.00 0.00 90 1009.1
20260506114404 76 185 2.0 6.0 0.00 0.00 0.00 89 1009.0
20260506113904 76 177 2.0 6.0 0.00 0.00 0.00 89 1008.8
20260506113404 76 176 2.0 6.0 0.00 0.00 0.00 89 1008.8
20260506112904 76 187 3.0 7.0 0.00 0.00 0.00 89 1008.7
20260506112404 76 155 2.0 7.0 0.00 0.00 0.00 89 1008.7
20260506111904 76 163 2.0 6.0 0.00 0.00 0.00 89 1008.6
20260506111404 76 182 1.0 6.0 0.00 0.00 0.00 89 1008.5
20260506110903 76 184 3.0 6.0 0.00 0.00 0.00 89 1008.5
20260506105404 76 175 0.0 3.0 0.00 0.00 0.00 89 1008.6
20260506104905 76 174 1.0 8.0 0.00 0.00 0.00 89 1008.7
20260506104405 76 173 2.0 8.0 0.00 0.00 0.00 88 1008.7
20260506103404 76 156 1.0 2.0 0.00 0.00 0.00 88 1008.8
20260506102904 76 156 0.0 3.0 0.00 0.00 0.00 88 1008.7
20260506102404 76 155 0.0 3.0 0.00 0.00 0.00 88 1008.7
20260506101905 76 156 0.0 3.0 0.00 0.00 0.00 88 1008.7
20260506101404 76 156 2.0 7.0 0.00 0.00 0.00 88 1008.6
20260506100904 76 154 2.0 7.0 0.00 0.00 0.00 88 1008.4
20260506100404 76 173 2.0 5.0 0.00 0.00 0.00 88 1008.4
20260506095904 76 175 1.0 3.0 0.00 0.00 0.00 88 1008.5
20260506094905 76 172 1.0 2.0 0.00 0.00 0.00 87 1008.3
20260506094404 76 172 0.0 3.0 0.00 0.00 0.00 87 1008.4
20260506093903 76 172 0.0 3.0 0.00 0.00 0.00 87 1008.4
20260506092904 77 169 0.0 3.0 0.00 0.00 0.00 87 1008.5
20260506092404 77 169 1.0 5.0 0.00 0.00 0.00 87 1008.5
20260506091904 77 169 1.0 5.0 0.00 0.00 0.00 87 1008.5
20260506090404 77 176 0.0 5.0 0.00 0.00 0.00 87 1008.6
20260506085904 77 173 2.0 5.0 0.00 0.00 0.00 87 1008.5
20260506083905 77 178 3.0 6.0 0.00 0.00 0.00 87 1008.8
20260506082904 77 184 1.0 7.0 0.00 0.00 0.00 87 1008.9
20260506082404 77 173 2.0 8.0 0.00 0.00 0.00 87 1008.7
20260506081904 77 181 3.0 8.0 0.00 0.00 0.00 86 1008.7
20260506081404 77 147 3.0 7.0 0.00 0.00 0.00 86 1008.8
20260506080405 77 187 3.0 7.0 0.00 0.00 0.00 86 1008.9
20260506073404 77 186 3.0 8.0 0.00 0.00 0.00 86 1009.3
20260506072904 77 191 1.0 9.0 0.00 0.00 0.00 86 1009.4
20260506072404 77 173 4.0 9.0 0.00 0.00 0.00 86 1009.5
20260506071904 77 213 3.0 7.0 0.00 0.00 0.00 86 1009.5
20260506071403 77 210 2.0 9.0 0.00 0.00 0.00 86 1009.4
20260506070904 77 191 2.0 9.0 0.00 0.00 0.00 86 1009.5
20260506062404 77 191 3.0 8.0 0.00 0.00 0.00 86 1009.5
20260506061404 77 179 4.0 12.0 0.00 0.00 0.00 85 1009.4
20260506060904 77 166 6.0 12.0 0.00 0.00 0.00 85 1009.3
20260506060404 77 178 2.0 8.0 0.00 0.00 0.00 85 1009.4
20260506051404 78 8 1.0 3.0 0.00 0.00 0.00 85 1009.6
20260506044904 78 137 2.0 7.0 0.00 0.00 0.00 85 1009.7
20260506044403 78 176 4.0 10.0 0.00 0.00 0.00 85 1009.6
20260506043904 78 213 3.0 10.0 0.00 0.00 0.00 85 1009.5
20260506043405 78 174 5.0 8.0 0.00 0.00 0.00 85 1009.4
20260506042905 78 158 3.0 9.0 0.00 0.00 0.00 85 1009.4
20260506042403 78 179 3.0 12.0 0.00 0.00 0.00 84 1009.4
20260506041905 78 180 5.0 14.0 0.00 0.00 0.00 84 1009.5
20260506041404 77 165 4.0 14.0 0.00 0.00 0.00 84 1009.5
20260506040904 78 157 4.0 14.0 0.00 0.00 0.00 84 1009.4
20260506040403 78 175 6.0 13.0 0.00 0.00 0.00 84 1009.2
20260506035903 78 165 5.0 13.0 0.00 0.00 0.00 84 1009.2
20260506035404 78 150 2.0 12.0 0.00 0.00 0.00 84 1009.3
20260506034904 78 159 5.0 14.0 0.00 0.00 0.00 84 1009.4
20260506034404 78 168 6.0 14.0 0.00 0.00 0.00 84 1009.3
20260506033904 78 170 5.0 14.0 0.00 0.00 0.00 84 1009.3
20260506033405 78 175 6.0 16.0 0.00 0.00 0.00 84 1009.2
20260506032904 78 187 7.0 16.0 0.00 0.00 0.00 84 1009.1
20260506032404 78 157 5.0 16.0 0.00 0.00 0.00 84 1009.1
20260506031904 78 175 6.0 14.0 0.00 0.00 0.00 84 1009.2
20260506031405 78 213 5.0 8.0 0.00 0.00 0.00 84 1009.1
20260506030904 78 175 4.0 12.0 0.00 0.00 0.00 84 1009.1
20260506030404 78 187 4.0 12.0 0.00 0.00 0.00 84 1009.1
20260506025904 78 181 4.0 12.0 0.00 0.00 0.00 84 1009.0
20260506024904 78 163 4.0 9.0 0.00 0.00 0.00 84 1008.8
20260506024404 78 167 2.0 9.0 0.00 0.00 0.00 84 1008.9
20260506023905 78 167 3.0 9.0 0.00 0.00 0.00 84 1008.7
20260506023404 78 167 4.0 12.0 0.00 0.00 0.00 84 1008.6
20260506022904 78 173 3.0 12.0 0.00 0.00 0.00 84 1008.6
20260506022404 78 182 3.0 12.0 0.00 0.00 0.00 84 1008.6
20260506021904 78 153 1.0 12.0 0.00 0.00 0.00 83 1008.4
20260506020905 78 160 2.0 13.0 0.00 0.00 0.00 83 1008.3
20260506015905 78 167 3.0 12.0 0.00 0.00 0.00 82 1008.1
20260506015403 78 188 4.0 9.0 0.00 0.00 0.00 82 1008.1
20260506014404 78 188 3.0 12.0 0.00 0.00 0.00 82 1007.9
20260506013903 78 170 4.0 10.0 0.00 0.00 0.00 81 1007.9
20260506013404 78 170 4.0 12.0 0.00 0.00 0.00 81 1007.9
20260506012904 79 172 4.0 12.0 0.00 0.00 0.00 81 1007.8
20260506012405 79 190 4.0 12.0 0.00 0.00 0.00 81 1007.8
20260506011404 79 180 5.0 12.0 0.00 0.00 0.00 81 1007.7
20260506010904 79 201 2.0 12.0 0.00 0.00 0.00 81 1007.5
20260506010404 79 181 5.0 10.0 0.00 0.00 0.00 80 1007.5
20260506005905 79 183 5.0 12.0 0.00 0.00 0.00 80 1007.4
20260506005404 79 176 6.0 12.0 0.00 0.00 0.00 80 1007.4
20260506004904 79 158 5.0 12.0 0.00 0.00 0.00 80 1007.3
20260506004404 79 190 3.0 16.0 0.00 0.00 0.00 80 1007.3
20260506003904 80 175 7.0 16.0 0.00 0.00 0.00 79 1007.3
20260506003404 80 172 4.0 9.0 0.00 0.00 0.00 79 1007.3
20260506002905 80 190 3.0 8.0 0.00 0.00 0.00 79 1007.3
20260506002404 80 184 5.0 9.0 0.00 0.00 0.00 79 1007.3
20260506001903 80 154 3.0 12.0 0.00 0.00 0.00 79 1007.2
20260506001405 80 181 4.0 12.0 0.00 0.00 0.00 79 1007.1
20260506000904 80 193 6.0 13.0 0.00 0.00 0.00 78 1007.1
20260505235904 80 180 6.0 12.0 0.00 0.00 0.00 78 1007.3
20260505234905 80 182 4.0 17.0 0.00 0.00 0.00 78 1007.2
20260505234405 80 182 7.0 17.0 0.00 0.00 0.00 78 1007.2
20260505233404 81 161 3.0 12.0 0.00 0.00 0.00 77 1007.3
20260505232905 81 205 5.0 13.0 0.00 0.00 0.00 77 1007.4
20260505232404 81 178 5.0 18.0 0.00 0.00 0.00 77 1007.3
20260505231404 81 180 6.0 17.0 0.00 0.00 0.00 76 1007.2
20260505230404 81 196 6.0 16.0 0.00 0.00 0.00 76 1007.3
20260505225904 81 198 5.0 15.0 0.00 0.00 0.00 76 1007.4
20260505225404 81 200 6.0 13.0 0.00 0.00 0.00 76 1007.3
20260505224904 81 175 5.0 12.0 0.00 0.00 0.00 76 1007.3
20260505223905 81 173 8.0 14.0 0.00 0.00 0.00 76 1007.3
20260505223405 81 175 7.0 14.0 0.00 0.00 0.00 76 1007.3
20260505222904 81 153 6.0 16.0 0.00 0.00 0.00 77 1007.4
20260505221904 82 197 6.0 17.0 0.00 0.00 0.00 76 1007.4
20260505221405 82 191 7.0 17.0 0.00 0.00 0.00 76 1007.5
20260505220404 82 198 3.0 12.0 0.00 0.00 0.00 76 1007.4
20260505215405 82 207 5.0 14.0 0.00 0.00 0.00 76 1007.6
20260505214904 82 174 8.0 14.0 0.00 0.00 0.00 76 1007.7
20260505214404 82 200 6.0 12.0 0.00 0.00 0.00 76 1007.7
20260505213904 82 156 4.0 13.0 0.00 0.00 0.00 76 1007.8
20260505213404 82 188 7.0 15.0 0.00 0.00 0.00 76 1007.8
20260505211904 82 178 6.0 14.0 0.00 0.00 0.00 76 1007.9
20260505211404 82 186 3.0 20.0 0.00 0.00 0.00 76 1008.0
20260505210904 82 178 7.0 20.0 0.00 0.00 0.00 75 1008.1
20260505210404 83 195 7.0 15.0 0.00 0.00 0.00 75 1008.0
20260505205905 83 198 5.0 12.0 0.00 0.00 0.00 76 1008.0
20260505205404 83 205 5.0 12.0 0.00 0.00 0.00 75 1008.1
20260505204905 83 213 5.0 13.0 0.00 0.00 0.00 75 1008.3
20260505203904 83 185 5.0 15.0 0.00 0.00 0.00 76 1008.4
20260505203405 82 205 6.0 15.0 0.00 0.00 0.00 76 1008.5
20260505202904 82 187 6.0 15.0 0.00 0.00 0.00 76 1008.6
20260505202404 82 161 4.0 15.0 0.00 0.00 0.00 76 1008.6
20260505201405 83 193 5.0 15.0 0.00 0.00 0.00 76 1008.7
20260505195404 83 206 4.0 13.0 0.00 0.00 0.00 77 1008.8
20260505194904 82 181 8.0 13.0 0.00 0.00 0.00 76 1008.8
20260505194405 82 189 6.0 13.0 0.00 0.00 0.00 76 1008.9
20260505193404 82 176 4.0 12.0 0.00 0.00 0.00 78 1009.0
20260505192904 82 198 3.0 7.0 0.00 0.00 0.00 79 1008.9
20260505191904 81 188 2.0 12.0 0.00 0.00 0.00 80 1009.1
20260505191403 81 206 6.0 12.0 0.00 0.00 0.00 79 1009.2
20260505190404 81 192 5.0 12.0 0.00 0.00 0.00 80 1009.2
20260505185904 80 169 5.0 15.0 0.00 0.00 0.00 80 1009.2